This is the latest recevied weather packets stored in our database for station/object K7CTM. If no packets are shown the sender has not sent any weather packets the latest 10 day(s).
| Time | Temp. | Humidity | Pressure | Rain* | Wind** | Luminosity | Snow |
|---|---|---|---|---|---|---|---|
| 1778027260 | 7.78° C | 35% | 1026.6 hPa | 0 mm | - | 108 W/m² | - |
| 1778026955 | 7.78° C | 35% | 1026.5 hPa | 0 mm | - | 138 W/m² | - |
| 1778026652 | 7.78° C | 37% | 1026.5 hPa | 0 mm | - | 145 W/m² | - |
| 1778026350 | 8.33° C | 34% | 1026.5 hPa | 0 mm | - | 133 W/m² | - |
| 1778026046 | 8.33° C | 33% | 1026.3 hPa | 0 mm | - | 130 W/m² | - |
| 1778025744 | 8.33° C | 33% | 1026.2 hPa | 0 mm | - | 182 W/m² | - |
| 1778025441 | 8.33° C | 33% | 1026.3 hPa | 0 mm | - | 166 W/m² | - |
| 1778025139 | 8.89° C | 33% | 1026.2 hPa | 0 mm | - | 190 W/m² | - |
| 1778024835 | 8.33° C | 33% | 1026.1 hPa | 0 mm | - | 281 W/m² | - |
| 1778024533 | 8.33° C | 34% | 1026 hPa | 0 mm | - | 131 W/m² | - |
| 1778024228 | 8.33° C | 35% | 1026.2 hPa | 0 mm | - | 117 W/m² | - |
| 1778023927 | 8.33° C | 34% | 1026.1 hPa | 0 mm | - | 188 W/m² | - |
| 1778023624 | 8.33° C | 34% | 1026 hPa | 0 mm | - | 133 W/m² | - |
| 1778023322 | 8.33° C | 34% | 1025.7 hPa | 0 mm | - | 121 W/m² | - |
| 1778023018 | 9.44° C | 32% | 1026 hPa | 0 mm | - | 165 W/m² | - |
| 1778022717 | 10° C | 32% | 1026.1 hPa | 0 mm | - | 553 W/m² | - |
| 1778022415 | 8.89° C | 33% | 1025.8 hPa | 0 mm | - | 352 W/m² | - |
| 1778022111 | 8.33° C | 33% | 1026.1 hPa | 0 mm | - | 149 W/m² | - |
| 1778021807 | 8.89° C | 32% | 1026.2 hPa | 0 mm | - | 117 W/m² | - |
| 1778021504 | 10° C | 32% | 1026.1 hPa | 0 mm | - | 182 W/m² | - |
| 1778021200 | 8.89° C | 34% | 1026 hPa | 0 mm | - | 226 W/m² | - |
| 1778020898 | 9.44° C | 38% | 1026 hPa | 0 mm | - | 172 W/m² | - |
| 1778020595 | 8.89° C | 45% | 1025.8 hPa | 0 mm | - | 587 W/m² | - |
| 1778020290 | 7.78° C | 48% | 1026.2 hPa | 0 mm | - | 213 W/m² | - |
| 1778019986 | 7.22° C | 49% | 1026 hPa | 0 mm | - | 211 W/m² | - |
* Rain latest hour (hover to see other rain measurements)
** Current wind speed in m/s (hover to see current wind gust speed)